TIANMU-1 15

Last updated on Thu Nov 21 2024 00:02:20 GMT+0000 (Coordinated Universal Time)

1 58700U 24004A 24325.59274401 .00010843 00000+0 53129-3 0 9996 2 58700 97.4608 144.1854 0008188 215.6616 144.4072 15.18295861 48476
UTC large
Height (km)
Speed (km/s)
/
Latitude / Longitude
Inclination (degrees)
Orbital Period (minutes)
Azimuth
Elevation
Range (km)
Doppler Factor

Next 0 passes for location: London (51.5072 / 0.1276)

Sorry there are no passes over London.